Regional Weather Roundup
Issued by NWS Raleigh/Durham, NC

Home | Current Version | Previous Version | Text Only | Print | Product List | Glossary On
Versions: 1 2 3 4 5 6 7 8 9 10 11 12 13 14 15 16 17 18 19 20 21 22 23 24 25 26 27 28 29 30 31 32 33 34 35 36 37 38 39 40 41 42 43 44 45 46 47 48 49 50
000
ASUS42 KRAH 161410
RWRRAH
NORTH CAROLINA WEATHER ROUNDUP
NATIONAL WEATHER SERVICE RALEIGH NC
1000 AM EDT TUE SEP 16 2014

NOTE: "FAIR" INDICATES FEW OR NO CLOUDS BELOW 12,000 FEET WITH NO
SIGNIFICANT WEATHER AND/OR OBSTRUCTIONS TO VISIBILITY.

NCZ001-053-055-056-065-067-161500-
WESTERN NORTH CAROLINA

CITY           SKY/WX    TMP DP  RH WIND       PRES   REMARKS
ASHEVILLE      PTSUNNY   70  64  81 NW6       30.14S
JEFFERSON      CLOUDY    65  59  80 W9        30.17R
MORGANTON      MOSUNNY   71  67  85 CALM      30.12S
HICKORY        MOSUNNY   71  67  87 VRB3      30.07S
RUTHERFORDTON  MOSUNNY   71  67  87 SW3       30.09S
MOUNT AIRY     MOSUNNY   69  67  90 S3        30.10S
BOONE          MOSUNNY   65  62  89 NW16      30.16R
$$

NCZ021-022-025-041-071-084-088-161500-
CENTRAL NORTH CAROLINA

CITY           SKY/WX    TMP DP  RH WIND       PRES   REMARKS
CHARLOTTE      MOSUNNY   75  67  76 VRB5      30.07F
GREENSBORO     PTSUNNY   75  64  68 NW6       30.07S
WINSTON-SALEM  MOSUNNY   73  64  73 CALM      30.09S
RALEIGH-DURHAM MOSUNNY   76  66  71 CALM      30.06S
FORT BRAGG     DRIZZLE   72  70  94 CALM      30.06S
FAYETTEVILLE   CLOUDY    73  69  87 NW3       30.06S
BURLINGTON     MOSUNNY   75  63  66 CALM      30.06F
LAURINBURG     CLOUDY    74  69  85 CALM      30.07S
$$

NCZ011-015-027-028-043-044-047-080-103-161500-
NORTHEASTERN NORTH CAROLINA

CITY           SKY/WX    TMP DP  RH WIND       PRES   REMARKS
ROCKY MT-WILSO MOSUNNY   75  68  78 W6        30.05S
GREENVILLE     CLOUDY    72  70  94 NW6       30.07S FOG
WASHINGTON     PTSUNNY   74  68  83 CALM      30.05F
ELIZABETH CITY PTSUNNY   73  68  84 SW6       30.04S
MANTEO         MOSUNNY   74  67  77 W5        30.04F
CAPE HATTERAS  MOSUNNY   76  69  79 NW5       30.04F
$$

NCZ078-087-090-091-093-098-101-161500-
SOUTHEASTERN NORTH CAROLINA

CITY           SKY/WX    TMP DP  RH WIND       PRES   REMARKS
LUMBERTON      LGT RAIN  73  71  93 W3        30.06S FOG
GOLDSBORO      CLOUDY    72  71  98 N2        30.04S
KINSTON        CLOUDY    75  70  83 NW6       30.06S
KENANSVILLE    CLOUDY    74  70  86 NW3       30.06S
NEW BERN       PTSUNNY   78  69  73 NW3       30.06S
CHERRY POINT   CLOUDY    77  69  76 N5        30.06S
BEAUFORT       CLOUDY    76  69  79 NE3       30.06R
JACKSONVILLE   CLOUDY    73  70  90 CALM      30.05S
WILMINGTON     CLOUDY    76  72  87 NW8       30.05S
$$




USA.gov is the U.S. government's official web portal to all federal, state and local government web resources and services.